Showing default

YAOGAN-36 03A, 54372

Orbit data source: Space-Track

YAOGAN-36 03A, 54372 is a payload satellite owned by PLA GAD (CN) in LEO that was launched on Sun, 27 Nov 2022 UTC via a CHANG ZHENG 2D launch vehicle from the Xichang Space Center, China (XSC). Payload-class satellites include a variety of spacecraft equipped with specific instruments for various scientific and technological missions. These include communications satellites like Starlink; space stations such as the ISS; scientific satellites like the Hubble; Earth observation satellites from companies like Planet Labs, Umbra, and HawkEye 360; GPS; miniature CubeSats for education and research; and military/defense satellites.

Loading next visibility...
Identifier
54372, 2022-160A
Orbit
LEO
Country
Flag of CNCN / PRC
Related business
Manufacturer
DFH
Mission
Operational Defense Sigint
Bus & Motor
Unknown
Mass
~300 kg wet, ~300 kg dry
Launch date (UTC)
2022-11-27 (4 years ago)
Launch vehicle
CHANG ZHENG 2D
Launch site
Xichang Space Center, China (XSC)
Object type
Payload
Rocket body
Debris
Shape & HBR
Box + 2 Pan, 2.5 m
Radar Cross Section
11.063 m², Large (>1 m²)

Expand to show TLE details & history
Last TLE update: 21 hours ago

TLE from 21 hours ago
0 YAOGAN-36 03A
1 54372U 22160A   26172.54646295  .00016221  00000-0  46823-3 0  9999
2 54372  35.0006 295.0952 0002796 340.2580  19.8030 15.34803712198884
Epoch: 2026-06-21T13:06Z
TLE epoch observation values (Epoch: 2026-06-21T13:06:54.398Z)
Latitude
-0.00002°
Longitude
-171.37667°
Altitude
458.606 km
Speed
7.641 km/s
True Right ascension
19h 40m 22s
True Declination
0° 00' 00"
Sunlit
Object was in full shadow at epoch
Visualization orbit readout
Latitude
Unknown
Longitude
Unknown
Altitude
Unknown
Speed
Unknown
Apparent Right ascension
Unknown
Apparent Declination
Unknown
Sunlit
N/A
Visualization observer readout
Local Sidereal Time
21:33:50
Azimuth
Unknown
Elevation
Unknown
Doppler factor
Unknown
Orbital elements
Apogee altitude
466.684 km
Perigee altitude
462.857 km
Semi-major axis
6,842.907 km
Eccentricity
0.00028
Inclination
35.0006°
RAAN
295.0952°
Arg. of periapsis
340.258°
True anomaly
19.81386°
Mean anomaly
19.803°
Eccentric anomaly
19.80843°
Mean motion
3.83427 °/min
Orbital period
93.89 mins
BSTAR
0.00046823
Loading maneuver chart data...
Computing Atmospheric mass density...
Loading historical data...
Loading historical data...
Loading historical data...
Loading historical data...
Loading historical data...
Loading historical data...
Loading historical data...
Other satellites on launch #160 in the year 2022 (2022-11-27 UTC)

Documentation

Showing up to 5 results
|